Location: Kalamazoo
(42.2920°N, 85.5870°W)
Time: 12:02:58
(UTC-05:00)

Daily predictions for brighter satellites

Satellite Brightness Start Highest point End
(mag) Time Altitude Azimuth Time Altitude Azimuth Time Altitude Azimuth
COSMOS 2428 2.8 18:05:58 10° SSW 18:11:42 88° WNW 18:17:27 10° NNE
Cosmos 1937 Rocket 4.1 18:06:37 10° NNW 18:11:44 63° WSW 18:16:53 10° S
Cosmos 2237 Rocket 3.0 18:07:47 10° SSE 18:12:40 31° ESE 18:17:35 10° NE
Cosmos 1484 Rocket 3.3 18:09:57 10° SE 18:13:36 38° ENE 18:17:19 10° N
Cosmos 1743 Rocket 3.6 18:10:59 10° S 18:15:23 62° E 18:19:50 10° NNE
Cosmos 1726 3.0 18:12:07 10° NNE 18:15:27 28° ENE 18:18:44 10° SE
CZ-2C R/B 2.7 18:10:52 10° S 18:15:52 77° WSW 18:20:45 10° NNW
SJ-7 4.4 18:13:44 10° SSE 18:17:47 89° W 18:21:49 10° NNW
SL-16 R/B 3.8 18:15:28 10° SE 18:18:24 15° E 18:21:21 10° ENE
Cosmos 2151 3.8 18:15:13 10° SSE 18:18:51 29° E 18:22:30 10° NNE
Cosmos 1328 Rocket 3.5 18:14:33 10° N 18:19:00 75° E 18:23:27 10° SSE
Cosmos 1300 3.4 18:15:46 10° NNE 18:19:13 31° ENE 18:22:38 10° SE
Tsikada Rocket 4.3 18:14:56 10° S 18:21:19 78° W 18:27:46 10° N
MSX 3.8 18:16:18 10° SSE 18:22:00 82° ENE 18:27:46 10° NNW
Cosmos 1515 Rocket 3.5 18:22:41 10° N 18:27:09 68° E 18:31:34 10° SSE
Aureole 2 Rocket 4.0 18:28:05 10° SSE 18:30:55 21° E 18:33:25 12° NE
SKYMED 2 3.8 18:27:32 10° NNE 18:31:45 47° E 18:35:56 10° S
Cosmos 1151 Rocket 3.1 18:28:13 10° N 18:32:24 51° E 18:36:34 10° SSE
COSMOS 2441 4.4 18:28:18 10° SSE 18:33:10 88° E 18:38:03 10° NNW
BREEZE M DEB (TANK) 2.0 18:32:45 10° NW 18:35:44 37° NNE 18:37:00 18° E
Lacrosse 5 rocket 1.9 18:33:50 10° NNW 18:37:18 34° NE 18:40:18 14° E
Abrixas 4.0 18:35:54 10° SSW 18:38:17 23° SE 18:39:46 16° E
Cosmos 1844 Rocket 3.3 18:36:20 10° NNW 18:41:55 61° WSW 18:47:27 10° S
Cosmos 1500 Rocket 3.5 18:37:40 10° S 18:41:59 87° E 18:46:22 10° N
CZ-4 R/B 3.5 18:41:00 10° SSW 18:44:25 29° W 18:47:52 10° NW
Meteor 1-28 Rocket 3.5 18:40:58 10° NNE 18:44:31 42° E 18:48:02 10° S
Cosmos 1634 Rocket 4.0 18:39:12 10° N 18:45:25 87° E 18:51:35 10° S
Meteor 1-11 4.4 18:40:42 10° SSE 18:46:09 50° E 18:51:42 10° NNE
Cosmos 1763 Rocket 4.5 18:42:43 10° SW 18:47:45 48° WNW 18:52:45 10° N
Cosmos 332 Rocket 4.4 18:46:53 10° SSW 18:51:38 58° WNW 18:56:27 10° NNE
Cosmos 372 Rocket 3.9 18:49:00 10° NNW 18:54:04 62° ENE 18:59:06 10° SSE
Cosmos 1328 3.9 18:51:16 10° S 18:55:12 79° W 18:59:11 10° N
Sich 1 4.2 18:53:06 10° SE 18:56:36 23° E 18:57:08 23° ENE
Cosmos 2360 Rocket 4.4 18:54:21 10° W 18:58:26 20° NW 19:02:32 10° N
NOSS 0 Rocket 3.9 18:52:13 10° SSW 18:58:26 87° ESE 19:04:42 10° NNE
Cosmos 1980 3.7 18:54:25 10° SSW 19:00:06 84° ESE 19:05:49 10° NNE
Cosmos 1633 Rocket 4.3 18:57:41 10° SE 19:00:37 22° E 19:00:37 22° E
Lacrosse 4 Rocket 3.6 19:00:15 10° NNE 19:00:22 10° NNE 19:00:22 10° NNE
Cosmos 2084 3.7 19:00:50 10° SW 19:04:39 57° NW 19:07:19 18° NNE
Cosmos 540 Rocket 3.4 19:00:05 10° SSW 19:05:16 88° ESE 19:10:29 10° NNE
FENGYUN 3A 4.2 19:01:52 10° SE 19:06:36 33° ENE 19:11:22 10° N
OTV 4 2.6 19:05:43 10° WSW 19:08:04 22° SSW 19:09:45 14° SSE
SJ-6B 3.0 19:04:47 10° SSE 19:08:44 52° ENE 19:12:45 10° N
Meteor 2-10 3.9 19:03:48 10° N 19:08:54 79° E 19:14:06 10° SSE
ALOS 2.9 19:05:23 10° SE 19:09:32 32° ENE 19:13:41 10° N
USA 215 3.2 19:03:08 10° SE 19:09:41 80° NE 19:16:15 10° NW
Cosmos 44 3.4 19:04:33 10° SSW 19:09:50 87° WNW 19:13:37 18° NNE
Cosmos 2333 Rocket 2.6 19:09:17 10° SW 19:14:52 64° WNW 19:20:31 10° NNE
METEOR-M 4.0 19:11:14 10° SSE 19:16:33 75° ENE 19:21:55 10° N
Cosmos 783 Rocket 4.5 19:11:28 10° SSW 19:16:47 86° ESE 19:21:47 12° NNE
Resurs 01 Rocket 2.1 19:17:34 35° ENE 19:17:48 36° ENE 19:21:52 10° N
Cosmos 1461 3.4 19:14:14 10° S 19:18:05 36° ESE 19:18:18 35° ESE
COSMO-SKYMED 1 3.4 19:15:34 10° N 19:19:46 50° WNW 19:23:58 10° SSW
Cosmos 1703 3.2 19:16:22 10° S 19:20:13 61° E 19:21:52 31° NNE
Cosmos 371 Rocket 4.5 19:17:04 10° SW 19:21:36 41° WNW 19:26:10 10° N
Cosmos 1707 Rocket 3.5 19:18:12 10° N 19:22:29 57° E 19:26:44 10° SSE
Cosmos 2219 Rocket 3.3 19:18:59 10° SW 19:24:20 42° WNW 19:29:40 10° NNE
Cosmos 2058 3.2 19:20:25 10° SSW 19:24:29 65° W 19:28:35 10° N
SL-19 R/B 4.3 19:23:59 10° SSE 19:29:52 66° ENE 19:35:27 10° N
FREGAT/IRIS 3.8 19:27:19 10° S 19:32:17 21° NNW 19:33:26 10° NNW
Cosmos 2278 Rocket 2.9 19:25:31 10° NNW 19:31:03 55° WSW 19:36:33 10° S
Cosmos 1666 Rocket 3.4 19:29:07 10° S 19:33:22 61° E 19:34:05 52° NE
Cosmos 1626 2.1 19:30:38 10° S 19:34:02 65° SE 19:34:02 65° SE
Cosmos 2279 Rocket 4.4 19:30:20 10° NNW 19:36:28 64° W 19:42:36 10° S
Spot 2 Rocket 3.4 19:33:02 10° SSE 19:37:59 59° ENE 19:42:57 10° N
Cosmos 1340 Rocket 3.3 19:34:18 10° SSW 19:38:11 57° WNW 19:40:58 18° N
Cosmos 1538 Rocket 3.9 19:42:14 10° S 19:47:29 73° ESE 19:48:47 51° NE
BREEZE-M DEB (TANK) 3.8 19:45:27 10° W 19:46:31 21° WNW 19:46:31 21° WNW
Cosmos 1356 Rocket 3.3 19:43:48 10° S 19:47:32 78° SSW 19:47:32 78° SSW
USA 229 DEB 4.0 19:42:57 10° S 19:49:17 42° ESE 19:49:29 42° ESE
USA 229 4.0 19:43:04 10° S 19:49:24 42° ESE 19:49:32 42° ESE
Lacrosse 5 3.9 19:49:37 10° NW 19:52:32 15° N 19:52:57 15° N
CENTAUR R/B 4.3 19:49:05 10° W 19:54:18 25° NNW 19:59:12 13° NNE
Cosmos 2237 Rocket 3.4 19:51:21 10° SW 19:56:35 39° WNW 20:01:05 14° N
Nadezhda 4 Rocket 3.9 19:51:02 10° S 19:57:18 87° W 20:03:39 10° N
Cosmos 2369 Rocket 4.2 19:57:18 10° N 19:58:25 14° N 19:58:25 14° N
Aureole 1 Rocket 3.8 19:56:42 10° S 20:01:10 59° SE 20:01:10 59° SE
SL-16 R/B 2.2 19:56:07 10° SSW 20:01:46 78° WNW 20:03:37 44° NNE
Cosmos 1900 4.4 19:59:21 10° NW 20:04:18 75° WSW 20:04:51 66° S
Cosmos 2297 4.3 20:05:46 10° NNW 20:11:20 55° WSW 20:16:53 10° S
Cosmos 1092 Rocket 3.9 20:09:17 10° S 20:15:38 86° W 20:20:04 21° N
Lacrosse 5 rocket 2.9 20:13:02 10° WNW 20:16:06 30° WSW 20:16:06 30° WSW
ALOS 4.3 20:43:04 10° SSW 20:46:58 26° W 20:50:54 10° NW
Resurs 01 Rocket 4.0 20:55:07 21° W 20:55:07 21° W 20:57:50 10° NW
